EW5195 Weather Reports


Display with metric or nautical units.
time (UTC)temp
F
wind
direction
speed
MPH
gust
MPH
rain 1hr
in
rain 24hr
in
rain mn
in
humidity
%
barometer
mb
20260510190100 84 0 1.0 4.0 0.00 0.00 0.00 38 1014.0
20260510184553 84 306 0.0 3.0 0.00 0.00 0.00 42 1014.3
20260510183052 84 0 0.0 4.0 0.00 0.00 0.00 46 1014.3
20260510181608 83 0 0.0 4.0 0.00 0.00 0.00 38 1014.4
20260510180107 83 0 0.0 4.0 0.00 0.00 0.00 38 1014.7
20260510174601 82 0 0.0 7.0 0.00 0.00 0.00 38 1014.7
20260510173054 82 71 0.0 7.0 0.00 0.00 0.00 37 1014.5
20260510171559 82 0 0.0 4.0 0.00 0.00 0.00 40 1014.9
20260510170122 82 151 0.0 5.0 0.00 0.00 0.00 38 1015.2
20260510164606 81 0 0.0 5.0 0.00 0.00 0.00 48 1015.2
20260510163053 81 0 0.0 5.0 0.00 0.00 0.00 44 1015.2
20260510161554 81 0 0.0 2.0 0.00 0.00 0.00 46 1015.4
20260510160054 80 0 0.0 4.0 0.00 0.00 0.00 45 1015.4
20260510154554 79 125 0.0 3.0 0.00 0.00 0.00 44 1015.5
20260510153056 79 0 0.0 3.0 0.00 0.00 0.00 44 1015.8
20260510151552 79 0 0.0 1.0 0.00 0.00 0.00 44 1016.0
20260510150052 79 0 0.0 3.0 0.00 0.00 0.00 47 1015.8
20260510144552 77 0 0.0 3.0 0.00 0.00 0.00 46 1015.8
20260510143052 77 0 0.0 2.0 0.00 0.00 0.00 49 1015.6
20260510141553 76 352 0.0 1.0 0.00 0.00 0.00 52 1015.6
20260510140054 75 0 0.0 2.0 0.00 0.00 0.00 58 1015.4
20260510134556 74 0 0.0 1.0 0.00 0.00 0.00 61 1015.5
20260510133051 72 0 0.0 2.0 0.00 0.00 0.00 64 1015.6
20260510131552 70 0 0.0 2.0 0.00 0.00 0.00 68 1015.6
20260510130054 68 0 0.0 0.0 0.00 0.00 0.00 72 1015.3
20260510124605 67 0 0.0 1.0 0.00 0.00 0.00 76 1015.4
20260510123053 64 0 0.0 1.0 0.00 0.00 0.00 83 1015.3
20260510121555 62 0 0.0 1.0 0.00 0.00 0.00 89 1015.0
20260510120054 59 0 0.0 0.0 0.00 0.00 0.00 93 1014.9
20260510114601 57 0 0.0 0.0 0.00 0.00 0.00 93 1014.7
20260510113053 56 0 0.0 0.0 0.00 0.00 0.00 93 1014.4
20260510111549 55 0 0.0 0.0 0.00 0.00 0.00 93 1014.1
20260510110053 54 0 0.0 0.0 0.00 0.00 0.00 93 1014.0
20260510104557 54 0 0.0 0.0 0.00 0.00 0.00 92 1013.8
20260510103056 54 0 0.0 1.0 0.00 0.00 0.00 91 1013.6
20260510101600 55 0 0.0 0.0 0.00 0.00 0.00 92 1013.5
20260510100101 55 0 0.0 0.0 0.00 0.00 0.00 92 1013.1
20260510094553 56 0 0.0 0.0 0.00 0.00 0.00 92 1012.9
20260510093055 56 0 0.0 0.0 0.00 0.00 0.00 92 1012.9
20260510091553 56 0 0.0 0.0 0.00 0.00 0.00 91 1012.9
20260510090054 57 0 0.0 0.0 0.00 0.00 0.00 91 1012.7
20260510084553 57 0 0.0 0.0 0.00 0.00 0.00 91 1012.5
20260510083103 58 0 0.0 0.0 0.00 0.00 0.00 91 1012.5
20260510081553 58 0 0.0 0.0 0.00 0.00 0.00 90 1012.3
20260510080053 58 0 0.0 0.0 0.00 0.00 0.00 90 1012.3
20260510074556 59 0 0.0 0.0 0.00 0.00 0.00 89 1012.0
20260510073105 60 0 0.0 0.0 0.00 0.00 0.00 89 1011.9
20260510071552 60 0 0.0 0.0 0.00 0.00 0.00 88 1012.0
20260510070054 61 0 0.0 0.0 0.00 0.00 0.00 88 1011.9
20260510064554 62 0 0.0 0.0 0.00 0.00 0.00 87 1011.9
20260510063054 62 0 0.0 1.0 0.00 0.00 0.00 87 1012.1
20260510061552 62 0 0.0 0.0 0.00 0.00 0.00 87 1012.0
20260510060055 62 0 0.0 1.0 0.00 0.00 0.00 87 1012.1
20260510054550 62 0 0.0 2.0 0.00 0.00 0.00 87 1012.1
20260510053056 61 0 0.0 0.0 0.00 0.00 0.00 87 1012.2
20260510051556 61 0 0.0 0.0 0.00 0.00 0.00 87 1012.2
20260510050057 61 0 0.0 0.0 0.00 0.00 0.00 86 1012.3
20260510044554 62 0 0.0 0.0 0.00 0.00 0.00 84 1012.3
20260510043054 62 0 0.0 0.0 0.00 0.00 0.00 84 1012.2
20260510041553 63 0 0.0 0.0 0.00 0.00 0.00 83 1012.2
20260510040058 63 0 0.0 0.0 0.00 0.00 0.00 82 1012.1
20260510034554 63 0 0.0 1.0 0.00 0.00 0.00 82 1012.0
20260510033112 63 0 0.0 2.0 0.00 0.00 0.00 81 1012.1
20260510031550 63 0 0.0 1.0 0.00 0.00 0.00 81 1011.9
20260510030054 63 0 0.0 0.0 0.00 0.00 0.00 80 1011.9
20260510024601 63 0 0.0 0.0 0.00 0.00 0.00 80 1011.7
20260510023051 63 0 0.0 1.0 0.00 0.00 0.00 80 1011.8
20260510021552 64 0 0.0 0.0 0.00 0.00 0.00 79 1011.6
20260510020053 64 0 0.0 0.0 0.00 0.00 0.00 79 1011.3
20260510014553 64 0 0.0 0.0 0.00 0.00 0.00 78 1011.2
20260510013053 64 0 0.0 0.0 0.00 0.00 0.00 77 1011.1
20260510011550 65 0 0.0 0.0 0.00 0.00 0.00 76 1011.0
20260510010049 66 0 0.0 0.0 0.00 0.00 0.00 74 1010.8
20260510004554 66 0 0.0 0.0 0.00 0.00 0.00 72 1010.8
20260510003103 67 0 0.0 1.0 0.00 0.00 0.00 70 1010.6
20260510001557 69 0 0.0 0.0 0.00 0.00 0.00 68 1010.2
20260510000057 70 0 0.0 0.0 0.00 0.00 0.00 65 1010.1
20260509234559 71 0 0.0 0.0 0.00 0.00 0.00 62 1009.9
20260509233053 72 0 0.0 1.0 0.00 0.00 0.00 62 1009.9
20260509231559 73 0 0.0 1.0 0.00 0.00 0.00 60 1009.9
20260509224558 73 0 0.0 1.0 0.00 0.00 0.00 59 1009.9
20260509223053 74 0 0.0 1.0 0.00 0.00 0.00 59 1009.9
20260509221557 74 0 0.0 2.0 0.00 0.00 0.00 57 1009.6
20260509220057 75 0 0.0 1.0 0.00 0.00 0.00 54 1009.7
20260509214556 76 0 0.0 5.0 0.00 0.00 0.00 52 1009.7
20260509213100 77 0 0.0 4.0 0.00 0.00 0.00 54 1009.6
20260509211559 77 181 0.0 4.0 0.00 0.00 0.00 55 1009.5
20260509210103 76 0 0.0 3.0 0.00 0.00 0.00 55 1009.7
20260509204607 75 0 0.0 3.0 0.00 0.00 0.00 56 1009.6
20260509203120 75 0 0.0 3.0 0.00 0.00 0.00 58 1009.6
20260509201606 75 0 0.0 5.0 0.00 0.00 0.00 55 1009.8
20260509200059 73 170 0.0 7.0 0.00 0.00 0.00 57 1009.9
20260509194556 74 0 0.0 6.0 0.00 0.00 0.00 56 1010.1
20260509193101 74 0 0.0 4.0 0.00 0.00 0.00 54 1010.1
20260509191559 74 0 0.0 5.0 0.00 0.00 0.00 52 1010.2